Regional Weather Roundup
Issued by NWS Cleveland, OH

Home | Current Version | Previous Version | Graphics & Text | Print | Product List | Glossary On
Versions: 1 2 3 4 5 6 7 8 9 10 11 12 13 14 15 16 17 18 19 20 21 22 23 24 25 26 27 28 29 30 31 32 33 34 35 36 37 38 39 40 41 42 43 44 45 46 47 48 49 50
000
ASUS41 KCLE 272312
RWRCLE
OHIO REGIONAL WEATHER ROUNDUP
NATIONAL WEATHER SERVICE WILMINGTON, OH
700 PM EDT TUE SEP 27 2016

NOTE: "FAIR" INDICATES FEW OR NO CLOUDS BELOW 12,000 FEET WITH NO
SIGNIFICANT WEATHER AND/OR OBSTRUCTIONS TO VISIBILITY.

OHZ001>008-015>018-024>027-034-035-043-044-280000-
   NORTHWEST OHIO

CITY           SKY/WX    TMP DP  RH WIND       PRES   REMARKS
DEFIANCE       FAIR      70  34  26 W3        29.76S
FINDLAY        FAIR      70  32  24 W9        29.78R
TOLEDO EXPRESS FAIR      65  37  35 W6        29.76R
TOLEDO EXEC    FAIR      65  40  39 W6        29.78R
LIMA           FAIR      69  38  32 SW10      29.79R
$$

OHZ009>014-019>023-028>033-038-089-280000-
   NORTHEAST OHIO

CITY           SKY/WX    TMP DP  RH WIND       PRES   REMARKS
CLE-HOPKINS    FAIR      71  38  29 SW10      29.80R
CLE-LAKEFRONT  MOCLDY    69  41  36 SW8       29.77R
CUY CO. ARPT   PTCLDY    72  41  33 SW10G17   29.80R
LORAIN-ELYRIA  FAIR      69  34  27 W9        29.79R
ASHTABULA      CLOUDY    64  46  52 NW5       29.82R
AKRON-CANTON   MOCLDY    66  40  38 SW12      29.84R
WOOSTER        LGT RAIN  67  41  38 S8        29.83R
MANSFIELD      FAIR      68  43  40 SW7       29.82R
YOUNGSTOWN     FAIR      66  40  38 SW8       29.84R
$$

OHZ042-051>053-060>062-070>072-077>081-280000-
  SOUTHWEST OHIO

CITY           SKY/WX    TMP DP  RH WIND       PRES   REMARKS
CINC-COVINGTON FAIR      70  46  42 SW8       29.86S
CINC-LUNKEN    FAIR      71  46  40 SW12      29.86S
HAMILTON       FAIR      71  46  40 SW6       29.85S
DAYTON         FAIR      68  44  42 SW14      29.84R
WRIGHT-PAT AFB FAIR      70  44  38 SW15G22   29.82S
DAYTON GENERAL FAIR      71  43  36 SW10      29.84R
WILMINGTON     FAIR      67  46  47 SW10      29.85S
$$

OHZ036-037-039>041-045>050-054>059-063>069-073>076-082>088-280000-
  CENTRAL AND SOUTHEAST OHIO

CITY           SKY/WX    TMP DP  RH WIND       PRES   REMARKS
COLUMBUS       FAIR      71  43  36 SW10      29.83S
OSU AIRPORT    FAIR      70  44  39 SW12      29.83R
BOLTON FIELD   CLEAR     70  46  43 SW9       29.84S
RICKENBACK AFB FAIR      69  43  39 SW8       29.84R
NEWARK         FAIR      70  40  33 SW8       29.84R
MARION         FAIR      71  34  25 W9        29.81R
LANCASTER      FAIR      69  41  36 SW8       29.86R
ZANESVILLE     FAIR      69  39  33 SW5       29.86R
NEW PHILLY     FAIR      68  41  37 S5        29.85R
$$




USA.gov is the U.S. government's official web portal to all federal, state and local government web resources and services.